EW0805 Weather Reports


Display with metric or nautical units.
time (UTC)temp
F
wind
direction
speed
MPH
gust
MPH
rain 1hr
in
rain 24hr
in
rain mn
in
humidity
%
barometer
mb
20260505183107 57 337 2.0 8.0 0.00 0.00 0.00 60 1012.0
20260505181556 58 311 2.0 5.0 0.00 0.00 0.00 60 1012.0
20260505180051 58 348 1.0 9.0 0.00 0.00 0.00 60 1012.0
20260505174550 58 313 3.0 10.0 0.00 0.00 0.00 60 1012.0
20260505173047 58 317 5.0 10.0 0.00 0.00 0.00 60 1012.1
20260505171538 58 348 2.0 10.0 0.00 0.00 0.00 60 1012.1
20260505170037 58 328 2.0 9.0 0.00 0.00 0.00 60 1012.1
20260505164546 58 6 4.0 9.0 0.00 0.00 0.00 60 1012.1
20260505163025 58 333 3.0 6.0 0.00 0.00 0.00 60 1012.1
20260505161520 58 6 1.0 6.0 0.00 0.00 0.00 60 1012.1
20260505153010 61 321 3.0 9.0 0.00 0.00 0.00 60 1012.3
20260505151502 61 333 1.0 5.0 0.00 0.00 0.00 58 1012.3
20260505124525 60 358 2.0 5.0 0.00 0.00 0.00 59 1012.8
20260505123014 61 37 2.0 6.0 0.00 0.00 0.00 59 1012.9
20260505121510 61 19 1.0 8.0 0.00 0.00 0.00 59 1012.9
20260505120006 60 338 3.0 9.0 0.00 0.00 0.00 59 1012.8
20260505114501 59 304 3.0 8.0 0.00 0.00 0.00 58 1012.9
20260505113101 58 40 3.0 6.0 0.00 0.00 0.00 55 1013.0
20260505111556 57 339 1.0 7.0 0.00 0.00 0.00 52 1013.2
20260505101533 56 2 3.0 7.0 0.00 0.00 0.00 45 1013.6
20260505100040 56 307 2.0 11.0 0.00 0.00 0.00 42 1013.5
20260505094524 56 353 1.0 7.0 0.00 0.00 0.00 30 1013.6
20260505093019 56 310 2.0 8.0 0.00 0.00 0.00 28 1013.6
20260505091514 56 297 5.0 12.0 0.00 0.00 0.00 23 1013.7
20260505090010 56 62 4.0 10.0 0.00 0.00 0.00 9 1013.6
20260505084506 55 289 4.0 8.0 0.00 0.00 0.00 1 1013.8
20260505083005 54 304 3.0 8.0 0.00 0.00 0.00 1 1013.9
20260505081604 53 311 2.0 6.0 0.00 0.00 0.00 1 1013.9
20260505080059 53 33 3.0 8.0 0.00 0.00 0.00 1 1014.0
20260505074609 53 334 2.0 5.0 0.00 0.00 0.00 1 1013.8
20260505073052 53 316 1.0 5.0 0.00 0.00 0.00 1 1013.9
20260505071545 53 4 2.0 6.0 0.00 0.00 0.00 1 1014.0
20260505070040 52 325 1.0 5.0 0.00 0.00 0.00 1 1014.0
20260505064537 51 33 2.0 5.0 0.00 0.00 0.00 1 1014.0
20260505063039 51 301 1.0 4.0 0.00 0.00 0.00 1 1014.0
20260505061532 50 320 2.0 6.0 0.00 0.00 0.00 1 1013.9
20260505060021 50 297 0.0 5.0 0.00 0.00 0.00 1 1014.0
20260505054523 50 343 2.0 5.0 0.00 0.00 0.00 1 1014.0
20260505053012 50 297 0.0 4.0 0.00 0.00 0.00 1 1014.0
20260505051508 50 321 1.0 3.0 0.00 0.00 0.00 1 1014.0
20260505041553 50 335 0.0 4.0 0.00 0.00 0.00 1 1014.2
20260505040049 50 332 0.0 4.0 0.00 0.00 0.00 1 1014.3
20260505034546 50 358 0.0 4.0 0.00 0.00 0.00 1 1014.2
20260505033048 50 302 1.0 4.0 0.00 0.00 0.00 1 1014.2
20260505031535 50 335 0.0 2.0 0.00 0.00 0.00 1 1014.2
20260505030031 51 331 0.0 2.0 0.00 0.00 0.00 1 1014.1
20260505024549 51 343 0.0 3.0 0.00 0.00 0.00 1 1014.1
20260505023025 51 50 0.0 2.0 0.00 0.00 0.00 1 1014.1
20260505021536 52 332 0.0 3.0 0.00 0.00 0.00 1 1014.3
20260505020013 52 27 0.0 4.0 0.00 0.00 0.00 1 1014.2
20260505014509 53 353 0.0 4.0 0.00 0.00 0.00 1 1014.4
20260505013005 53 331 2.0 5.0 0.00 0.00 0.00 1 1014.4
20260505011601 54 29 1.0 4.0 0.00 0.00 0.00 1 1014.7
20260505010056 54 348 1.0 4.0 0.00 0.00 0.00 1 1014.7
20260505004551 54 2 1.0 4.0 0.00 0.00 0.00 1 1014.7
20260505003046 54 339 1.0 3.0 0.00 0.00 0.00 1 1014.8
20260505001542 55 34 0.0 4.0 0.00 0.00 0.00 1 1014.9
20260505000039 55 48 1.0 4.0 0.00 0.00 0.00 1 1014.9
20260504234532 55 55 1.0 4.0 0.00 0.00 0.00 1 1015.0
20260504233027 55 46 0.0 3.0 0.00 0.00 0.00 1 1015.1
20260504231524 55 12 1.0 5.0 0.00 0.00 0.00 1 1015.1
20260504230019 55 61 2.0 5.0 0.00 0.00 0.00 1 1015.1
20260504224514 56 33 2.0 4.0 0.00 0.00 0.00 1 1015.3
20260504223010 56 343 1.0 3.0 0.00 0.00 0.00 1 1015.2
20260504221505 57 348 1.0 8.0 0.00 0.00 0.00 1 1015.3
20260504220001 57 17 1.0 5.0 0.00 0.00 0.00 1 1015.3
20260504214556 57 29 1.0 5.0 0.00 0.00 0.00 3 1015.3
20260504213104 57 353 0.0 4.0 0.00 0.00 0.00 5 1015.4
20260504211554 57 15 1.0 5.0 0.00 0.00 0.00 5 1015.3
20260504210052 57 20 1.0 4.0 0.00 0.00 0.00 6 1015.4
20260504204559 58 44 1.0 5.0 0.00 0.00 0.00 7 1015.3
20260504203042 58 18 2.0 5.0 0.00 0.00 0.00 9 1015.3
20260504201536 58 344 1.0 8.0 0.00 0.00 0.00 13 1015.2
20260504200034 58 331 1.0 4.0 0.00 0.00 0.00 15 1015.1
20260504194531 59 18 0.0 5.0 0.00 0.00 0.00 17 1015.0
20260504193023 59 24 1.0 6.0 0.00 0.00 0.00 20 1014.8
20260504191518 59 19 1.0 6.0 0.00 0.00 0.00 23 1014.8
20260504190013 59 52 2.0 5.0 0.00 0.00 0.00 25 1014.7
20260504184511 59 16 2.0 5.0 0.00 0.00 0.00 28 1014.6